Simultaneous Nadir Overpasses (SNOs) Predictions

Prediction of SNOs between METOP-A and NOAA-19 Satellite Orbit:

Table of predicted SNOs for the next 14.0 days since TLE Epoch: 9/25/2021
Index Date (METOP-A) Time (METOP-A) Lat,Lon (METOP-A) SZA (METOP-A ) Date (NOAA-19) Time (NOAA-19) Lat,Lon (NOAA-19) SZA (NOAA-19 ) Distance(km) Time Diff (sec)
1 10/03/2021 04:04:58 80.46, 119.44 84.45 10/03/2021 04:03:43 80.46, 119.61 84.46 3.28 75
2 10/03/2021 04:55:39 -80.47, -73.09 95.53 10/03/2021 04:54:38 -80.47, -73.09 95.53 0.35 61
3 10/03/2021 05:46:19 80.47, 94.26 84.50 10/03/2021 05:45:43 80.47, 94.19 84.49 1.39 36
4 10/03/2021 06:37:00 -80.48, -98.27 95.48 10/03/2021 06:36:37 -80.49, -98.17 95.48 1.79 23
5 10/03/2021 07:27:40 80.48, 69.09 84.54 10/03/2021 07:27:42 80.49, 69.11 84.54 0.59 2
6 10/03/2021 08:18:21 -80.50,-123.44 95.44 10/03/2021 08:18:37 -80.49,-123.59 95.45 2.89 16
7 10/03/2021 09:09:01 80.50, 43.91 84.58 10/03/2021 09:09:41 80.51, 44.04 84.59 2.50 40



Historial Predications of SNOs between METOP-A and NOAA-19
